This is the latest recevied weather packets stored in our database for station/object SP1BMW-13. If no packets are shown the sender has not sent any weather packets the latest 10 day(s).
| Time | Temp. | Humidity | Pressure | Rain* | Wind** | Luminosity | Snow |
|---|---|---|---|---|---|---|---|
| 1777390138 | 13.33° C | 28% | 1024.5 hPa | 0 mm | 0.89 m/s, 357° | 282 W/m² | - |
| 1777390078 | 13.33° C | 29% | 1024.6 hPa | 0 mm | 0.89 m/s, 18° | 285 W/m² | - |
| 1777390018 | 13.33° C | 29% | 1024.6 hPa | 0 mm | 1.34 m/s, 3° | 288 W/m² | - |
| 1777389958 | 13.33° C | 28% | 1024.6 hPa | 0 mm | 1.79 m/s, 316° | 290 W/m² | - |
| 1777389898 | 13.33° C | 28% | 1024.8 hPa | 0 mm | 2.68 m/s, 324° | 292 W/m² | - |
| 1777389838 | 13.89° C | 28% | 1024.5 hPa | 0 mm | 1.79 m/s, 311° | 295 W/m² | - |
| 1777389778 | 13.89° C | 27% | 1024.7 hPa | 0 mm | 1.79 m/s, 319° | 298 W/m² | - |
| 1777389718 | 13.89° C | 28% | 1024.7 hPa | 0 mm | 4.02 m/s, 305° | 299 W/m² | - |
| 1777389659 | 13.89° C | 27% | 1024.8 hPa | 0 mm | 3.13 m/s, 303° | 302 W/m² | - |
| 1777389599 | 13.89° C | 27% | 1024.4 hPa | 0 mm | 1.79 m/s, 284° | 304 W/m² | - |
| 1777389538 | 13.89° C | 29% | 1024.7 hPa | 0 mm | 1.34 m/s, 212° | 306 W/m² | - |
| 1777389478 | 13.89° C | 29% | 1024.6 hPa | 0 mm | 1.79 m/s, 298° | 308 W/m² | - |
| 1777389418 | 13.89° C | 28% | 1024.5 hPa | 0 mm | 3.13 m/s, 285° | 310 W/m² | - |
| 1777389358 | 13.89° C | 29% | 1024.5 hPa | 0 mm | 1.34 m/s, 321° | 313 W/m² | - |
| 1777389298 | 13.89° C | 27% | 1024.7 hPa | 0 mm | 0.89 m/s, 284° | 315 W/m² | - |
| 1777389238 | 13.89° C | 27% | 1024.6 hPa | 0 mm | 1.79 m/s, 333° | 317 W/m² | - |
| 1777389178 | 13.89° C | 28% | 1024.6 hPa | 0 mm | 1.79 m/s, 295° | 319 W/m² | - |
| 1777389118 | 13.89° C | 27% | 1024.7 hPa | 0 mm | 1.79 m/s, 334° | 322 W/m² | - |
| 1777389058 | 13.89° C | 28% | 1024.7 hPa | 0 mm | 3.13 m/s, 0° | 324 W/m² | - |
| 1777388998 | 13.89° C | 27% | 1024.5 hPa | 0 mm | 0.89 m/s, 11° | 326 W/m² | - |
| 1777388938 | 13.89° C | 28% | 1024.7 hPa | 0 mm | 0.45 m/s, 343° | 329 W/m² | - |
| 1777388878 | 14.44° C | 26% | 1024.8 hPa | 0 mm | 4.47 m/s, 335° | 331 W/m² | - |
| 1777388818 | 14.44° C | 27% | 1024.5 hPa | 0 mm | 1.34 m/s, 20° | 334 W/m² | - |
| 1777388758 | 14.44° C | 27% | 1024.8 hPa | 0 mm | 0.89 m/s, 346° | 336 W/m² | - |
| 1777388638 | 14.44° C | 29% | 1024.6 hPa | 0 mm | 1.79 m/s, 321° | 341 W/m² | - |
* Rain latest hour (hover to see other rain measurements)
** Current wind speed in m/s (hover to see current wind gust speed)